Date String (YYYY-MM-DD hh:mm:ss) UTC,Instrument flags,absolute air pressure of the measurement (hPa),sample flow rate (lpm),inlet stack bypass flow (lpm),air temperature of the measurement (°C),ambient temperature measured by the external sensor (°C),aerosol sample conditioner tube jacket temperature (°C),OPC LED temperature (°C),internal box temperature (°C),relative humidity of the measurement (%),span deviation,mass concentration of particles derived from Lorenz-Mie calculation of OPC scattering (μg/m³),mass concentration of particles derived from Lorenz-Mie calculation of OPC scattering (μg/m³),mass concentration of particles derived from Lorenz-Mie calculation of OPC scattering (μg/m³)
DateTimeUTC,F1_M11,P_M11,Q1_M11,Q2_M11,T1_M11,T2_M11,T3_M11,T4_M11,T5_M11,U1_M11,ZSPAN_M11,X0_M11,X2_M11,X1_M11
2023-08-16 05:00:00,SystemResetWarning,0835.1,5.00,000.00,029.0,026.0,000.0,037.5,030.4,17.2,-000.8,0013.49,0005.49,0004.45
2023-08-16 05:01:00,SystemResetWarning,0835.0,5.00,000.00,029.0,026.4,000.0,037.5,030.5,17.3,-000.3,0012.82,0005.52,0004.46
2023-08-16 05:02:00,SystemResetWarning,0835.0,5.00,000.00,029.0,026.7,000.0,037.5,030.6,17.3,-001.0,0012.62,0005.52,0004.45
2023-08-16 05:03:00,SystemResetWarning,0834.9,5.00,000.00,029.0,027.0,000.0,037.5,030.7,17.3,-001.0,0012.47,0005.49,0004.45
2023-08-16 05:04:00,SystemResetWarning,0835.0,5.00,000.00,029.1,027.3,000.0,037.6,030.8,17.1,-001.1,0012.90,0005.46,0004.45
2023-08-16 05:05:00,SystemResetWarning,0834.8,4.99,000.00,029.1,027.5,000.0,037.6,030.8,17.1,-001.6,0013.22,0005.48,0004.45
2023-08-16 05:06:00,SystemResetWarning,0834.5,4.98,000.00,029.1,027.7,000.0,037.6,030.9,17.1,-000.9,0014.53,0005.52,0004.45
2023-08-16 05:07:00,SystemResetWarning,0834.5,5.00,000.00,029.2,027.9,000.0,037.6,030.9,17.0,-000.2,0015.21,0005.48,0004.43
2023-08-16 05:08:00,SystemResetWarning,0834.5,5.01,000.00,029.2,028.0,000.0,037.7,031.0,17.0,0000.0,0015.00,0005.46,0004.43
2023-08-16 05:09:00,SystemResetWarning,0834.5,5.00,000.00,029.3,027.7,000.0,037.6,030.9,16.9,0000.0,0015.16,0005.40,0004.41
2023-08-16 05:10:00,SystemResetWarning,0834.5,4.99,000.00,029.2,025.9,000.0,037.5,030.5,16.9,0000.0,0015.07,0005.41,0004.41
2023-08-16 05:11:00,SystemResetWarning,0834.5,5.00,000.00,029.1,025.3,000.0,037.4,030.4,17.0,0000.0,0015.55,0005.39,0004.41
2023-08-16 05:12:00,SystemResetWarning,0834.5,5.01,000.00,029.1,025.5,000.0,037.4,030.3,17.1,0000.0,0015.98,0005.34,0004.41
2023-08-16 05:13:00,SystemResetWarning,0834.5,5.01,000.00,029.0,025.8,000.0,037.5,030.3,17.1,0000.0,0016.10,0005.35,0004.42
2023-08-16 05:14:00,SystemResetWarning,0834.5,4.99,000.00,029.0,026.2,000.0,037.5,030.4,17.1,0000.0,0016.02,0005.35,0004.43
2023-08-16 05:15:00,SystemResetWarning,0834.5,4.99,000.00,029.0,026.6,000.0,037.5,030.6,17.2,0000.0,0015.19,0005.35,0004.42
2023-08-16 05:16:00,SystemResetWarning,0834.5,5.00,000.00,029.0,026.9,000.0,037.5,030.6,17.1,0000.0,0014.52,0005.31,0004.41
2023-08-16 05:17:00,SystemResetWarning,0834.5,5.01,000.00,029.1,027.2,000.0,037.5,030.7,17.2,0000.0,0013.89,0005.26,0004.41
2023-08-16 05:18:00,SystemResetWarning,0834.5,5.01,000.00,029.1,027.4,000.0,037.6,030.8,17.1,0000.0,0013.00,0005.20,0004.41
2023-08-16 05:19:00,SystemResetWarning,0834.5,4.99,000.00,029.1,027.6,000.0,037.6,030.8,17.1,0000.0,0012.48,0005.18,0004.41
2023-08-16 05:20:00,SystemResetWarning,0834.5,5.00,000.00,029.2,027.8,000.0,037.6,030.9,17.0,0000.0,0011.72,0005.21,0004.42
2023-08-16 05:21:00,SystemResetWarning,0834.5,5.00,000.00,029.2,027.9,000.0,037.6,031.0,17.0,0000.0,0011.64,0005.17,0004.41
2023-08-16 05:22:00,SystemResetWarning,0834.5,4.99,000.00,029.2,028.1,000.0,037.6,031.0,17.0,0000.0,0011.79,0005.17,0004.40
2023-08-16 05:23:00,SystemResetWarning,0834.5,5.00,000.00,029.3,028.1,000.0,037.7,031.0,17.0,0000.0,0011.34,0005.17,0004.40
2023-08-16 05:24:00,SystemResetWarning,0834.5,5.00,000.00,029.3,026.7,000.0,037.6,030.8,16.9,0000.0,0011.55,0005.16,0004.38
2023-08-16 05:25:00,SystemResetWarning,0834.4,5.00,000.00,029.2,025.5,000.0,037.5,030.5,17.0,0000.0,0011.49,0005.18,0004.37
2023-08-16 05:26:00,SystemResetWarning,0834.4,5.01,000.00,029.1,025.5,000.0,037.4,030.4,17.0,0000.0,0011.69,0005.18,0004.37
2023-08-16 05:27:00,SystemResetWarning,0834.4,5.01,000.00,029.1,025.8,000.0,037.5,030.3,17.1,0000.0,0011.69,0005.18,0004.37
2023-08-16 05:28:00,SystemResetWarning,0834.6,5.00,000.00,029.0,026.1,000.0,037.5,030.4,17.1,0000.0,0011.27,0005.21,0004.38
2023-08-16 05:29:00,SystemResetWarning,0834.4,5.00,000.00,029.0,026.5,000.0,037.5,030.6,17.1,0000.0,0011.03,0005.26,0004.37
2023-08-16 05:30:00,SystemResetWarning,0834.4,5.00,000.00,029.1,026.8,000.0,037.5,030.7,17.1,0000.0,0011.27,0005.30,0004.37
2023-08-16 05:31:00,SystemResetWarning,0834.4,5.00,000.00,029.1,027.1,000.0,037.6,030.7,17.1,0000.0,0011.60,0005.32,0004.37
2023-08-16 05:32:00,SystemResetWarning,0834.4,5.00,000.00,029.1,027.4,000.0,037.6,030.8,17.1,0000.0,0012.07,0005.31,0004.36
2023-08-16 05:33:00,SystemResetWarning,0834.4,4.98,000.00,029.1,027.6,000.0,037.6,030.8,17.1,0000.0,0012.56,0005.35,0004.36
2023-08-16 05:34:00,SystemResetWarning,0834.3,4.99,000.00,029.2,027.7,000.0,037.6,030.9,17.1,0000.0,0012.72,0005.37,0004.37
2023-08-16 05:35:00,SystemResetWarning,0834.3,5.01,000.00,029.2,027.9,000.0,037.6,030.9,17.0,0000.0,0012.58,0005.40,0004.37
2023-08-16 05:36:00,SystemResetWarning,0834.3,5.00,000.00,029.2,028.0,000.0,037.7,031.0,17.0,0000.0,0013.26,0005.38,0004.35
2023-08-16 05:37:00,SystemResetWarning,0834.4,5.00,000.00,029.3,028.1,000.0,037.7,031.0,16.9,0000.0,0013.32,0005.37,0004.36
2023-08-16 05:38:00,SystemResetWarning,0834.4,4.99,000.00,029.3,028.2,000.0,037.7,031.1,16.8,0000.0,0013.21,0005.40,0004.36
2023-08-16 05:39:00,SystemResetWarning,0834.4,4.99,000.00,029.4,028.2,000.0,037.7,031.1,16.8,0000.0,0013.69,0005.43,0004.36
2023-08-16 05:40:00,SystemResetWarning,0834.3,5.00,000.00,029.4,026.8,000.0,037.7,030.8,16.8,0000.0,0013.92,0005.46,0004.38
2023-08-16 05:41:00,SystemResetWarning,0834.3,5.00,000.00,029.3,025.5,000.0,037.5,030.5,16.9,0000.0,0013.78,0005.44,0004.38
2023-08-16 05:42:00,SystemResetWarning,0834.3,5.00,000.00,029.2,025.5,000.0,037.5,030.4,17.0,0000.0,0013.84,0005.40,0004.38
2023-08-16 05:43:00,SystemResetWarning,0834.3,5.01,000.00,029.1,025.8,000.0,037.5,030.4,17.1,0000.0,0015.11,0005.43,0004.38
2023-08-16 05:44:00,SystemResetWarning,0834.3,4.99,000.00,029.1,026.2,000.0,037.6,030.5,17.2,0000.0,0015.67,0005.43,0004.38
2023-08-16 05:45:00,SystemResetWarning,0834.3,5.00,000.00,029.1,026.5,000.0,037.6,030.6,17.1,0000.0,0016.03,0005.48,0004.39
2023-08-16 05:46:00,SystemResetWarning,0834.4,5.00,000.00,029.1,026.9,000.0,037.6,030.7,17.2,0000.0,0016.14,0005.44,0004.39
2023-08-16 05:47:00,SystemResetWarning,0834.3,5.00,000.00,029.1,027.1,000.0,037.6,030.8,17.1,0000.0,0015.62,0005.43,0004.39
2023-08-16 05:48:00,SystemResetWarning,0834.3,4.99,000.00,029.2,027.4,000.0,037.7,030.8,17.1,0000.0,0015.41,0005.45,0004.39
2023-08-16 05:49:00,SystemResetWarning,0834.3,5.00,000.00,029.2,027.6,000.0,037.7,030.9,16.9,0000.0,0015.47,0005.47,0004.41
2023-08-16 05:50:00,SystemResetWarning,0834.3,5.00,000.00,029.2,027.8,000.0,037.7,030.9,17.0,0000.0,0015.71,0005.41,0004.40
2023-08-16 05:51:00,SystemResetWarning,0834.3,5.01,000.00,029.3,027.9,000.0,037.7,031.0,17.0,0000.0,0016.24,0005.40,0004.40
2023-08-16 05:52:00,SystemResetWarning,0834.3,5.00,000.00,029.3,028.0,000.0,037.7,031.0,16.9,0000.0,0016.32,0005.43,0004.39
2023-08-16 05:53:00,SystemResetWarning,0834.5,5.00,000.00,029.3,028.1,000.0,037.8,031.1,16.9,0000.0,0016.32,0005.43,0004.39
2023-08-16 05:54:00,SystemResetWarning,0834.2,5.00,000.00,029.4,028.2,000.0,037.8,031.1,16.7,0000.0,0015.06,0005.41,0004.40
2023-08-16 05:55:00,SystemResetWarning,0834.3,4.99,000.00,029.4,027.7,000.0,037.8,031.0,16.7,0000.0,0014.22,0005.36,0004.41
2023-08-16 05:56:00,SystemResetWarning,0834.3,4.99,000.00,029.3,025.9,000.0,037.6,030.6,16.7,0000.0,0013.43,0005.29,0004.40
2023-08-16 05:57:00,SystemResetWarning,0834.3,5.00,000.00,029.2,025.4,000.0,037.5,030.4,16.8,0000.0,0014.21,0005.27,0004.40
2023-08-16 05:58:00,SystemResetWarning,0834.3,5.02,000.00,029.1,025.6,000.0,037.5,030.3,16.9,0000.0,0014.79,0005.25,0004.40
2023-08-16 05:59:00,SystemResetWarning,0834.4,5.00,000.00,029.1,025.9,000.0,037.6,030.4,17.0,0000.0,0014.85,0005.24,0004.40
